Vorticity
-1 -0 -0 -0 0 1 2 4 6 9 12 16 20 24 28 33 37 40 43 43 42 42 40 39 39 39 40 40 39 37 35 33 31 29 28 26 25 24 24 24 24 24 25 25 25 25 26 27 28 29 30 32 33 34 36 37 39 40 40 40 40 40 39 38 36 34 32 30 28 26 24 23 21 20 18 17 16 15 15 15 14 14 14 14 14 13
-1 -1 -0 0 1 3 6 8 12 15 18 23 27 31 35 38 42 43 44 43 41 39 38 38 38 38 38 36 34 31 28 26 24 22 20 20 19 19 19 19 19 19 18 18 19 19 20 21 22 23 24 26 27 29 31 32 34 35 36 37 38 38 37 36 35 34 32 31 29 28 26 24 23 21 20 19 18 18 17 18 18 18 18 18 18 18
-0 0 1 2 4 7 10 15 19 23 27 30 33 36 40 42 43 43 42 40 38 37 37 37 36 34 32 29 26 23 20 18 17 16 16 15 15 15 16 16 15 15 15 15 15 15 15 16 16 17 18 20 22 23 26 28 29 31 32 33 34 34 34 34 34 33 32 31 30 28 27 26 24 23 22 22 22 22 22 22 22 23 23 24 24 24
0 2 4 6 9 13 17 21 26 30 34 37 39 41 44 44 43 42 39 37 36 36 36 34 31 28 24 21 18 16 15 14 14 14 14 14 15 15 16 16 16 15 15 15 14 14 14 13 13 13 14 15 16 18 20 23 25 27 29 30 31 32 32 32 32 32 32 31 30 29 28 28 27 27 26 26 26 26 25 25 25 25 25 25 26 26
3 5 8 11 15 20 25 29 32 35 38 41 42 44 44 43 41 38 36 36 35 34 31 27 24 20 17 15 14 13 13 13 13 14 15 16 17 18 19 18 18 18 17 17 16 16 15 14 14 13 13 13 13 14 15 17 19 22 24 27 28 30 31 31 31 32 32 31 31 30 30 29 28 27 26 25 24 23 22 21 21 22 22 23 24 24
7 10 13 18 22 27 31 36 39 40 41 42 43 43 42 41 39 36 34 34 32 29 24 20 17 14 13 12 12 13 13 14 16 17 19 20 21 22 21 21 20 20 19 19 18 18 17 17 16 16 15 15 14 14 13 13 14 15 17 18 20 22 24 26 27 27 28 28 27 27 25 24 22 20 18 17 16 15 15 16 16 18 19 20 22 23
13 16 20 26 30 34 36 40 42 43 42 41 41 41 40 38 37 35 33 30 26 22 18 15 13 12 12 13 13 14 16 17 19 21 23 23 23 22 21 20 19 19 18 18 18 18 18 18 18 18 19 18 18 18 17 16 15 14 13 13 13 14 14 16 16 17 18 18 17 17 15 14 13 11 10 10 10 10 11 13 14 16 18 20 22 24
19 23 28 32 36 39 42 43 43 43 42 40 39 38 37 35 33 31 28 24 20 16 13 12 13 14 15 15 16 17 19 20 22 24 24 23 21 19 18 17 16 16 16 16 16 16 16 17 18 19 19 20 21 21 21 21 20 19 18 16 15 14 13 12 11 10 10 10 9 9 8 8 8 8 8 9 10 10 11 13 14 17 19 21 23 25
24 28 34 38 40 40 41 42 42 40 39 39 39 37 34 31 28 25 21 17 15 13 12 13 15 16 18 18 18 19 20 22 22 22 22 19 17 15 13 13 13 12 12 12 12 13 13 14 15 16 18 19 20 21 22 22 23 23 23 22 22 21 20 18 17 15 13 12 11 10 10 10 10 11 11 11 11 12 12 13 15 17 19 22 24 25
32 34 36 40 42 42 38 38 38 39 38 38 37 35 32 28 23 19 15 13 13 14 15 16 17 18 19 19 19 19 20 20 19 18 17 15 13 11 10 10 10 10 10 10 10 10 10 11 12 13 14 15 17 18 19 20 21 22 22 23 24 24 24 24 24 23 22 21 19 18 17 16 16 15 15 14 13 13 13 13 14 16 18 21 22 23
37 40 39 39 40 41 39 37 37 38 38 36 33 30 26 22 18 15 13 13 14 16 18 19 19 19 19 19 19 18 18 17 16 14 13 12 10 10 9 9 9 9 9 8 8 8 7 8 8 9 10 11 13 14 16 17 18 19 20 20 21 22 22 23 23 24 24 24 24 23 22 22 20 19 18 17 15 14 13 13 14 15 17 19 20 20
37 39 40 38 37 37 37 37 37 37 36 33 28 23 18 15 13 13 14 16 17 18 19 19 19 18 17 16 16 16 15 13 13 12 11 10 10 9 9 9 9 10 9 9 9 8 7 7 7 7 7 7 8 10 12 13 15 16 17 18 18 18 19 19 19 20 20 21 21 21 22 21 21 20 19 18 17 15 14 14 14 14 15 16 16 15
39 38 37 36 36 35 36 37 37 36 32 27 22 17 13 12 13 15 17 19 19 19 19 18 17 16 14 12 11 11 11 10 10 10 10 10 9 9 8 9 10 10 10 10 10 10 10 9 9 8 7 7 6 7 8 10 12 13 15 16 16 17 17 17 17 17 17 17 18 18 18 19 19 19 18 17 16 16 15 14 14 13 13 13 11 10
38 37 36 35 35 35 36 36 35 31 26 20 16 14 13 14 15 18 19 20 19 19 18 17 15 13 12 9 8 7 8 8 9 9 10 10 10 9 8 9 10 10 10 11 11 12 12 12 12 12 11 9 8 7 7 8 9 11 12 13 15 16 17 17 17 17 17 17 17 17 17 17 17 17 16 16 15 15 14 14 13 12 11 9 8 6
35 34 34 34 34 34 35 34 30 25 20 16 13 13 14 16 18 20 20 19 18 17 16 14 12 11 10 8 6 4 5 7 8 10 12 11 10 8 8 9 9 9 9 10 11 12 13 14 15 15 14 13 12 11 10 9 9 9 10 12 14 16 18 19 20 20 20 20 19 19 19 18 18 17 16 16 15 14 13 12 11 10 8 6 5 4
33 32 32 32 33 34 33 30 25 20 15 13 13 14 16 18 19 20 19 18 17 16 14 12 10 9 8 7 4 2 2 5 9 11 13 12 10 7 6 7 8 8 9 10 11 12 14 15 16 17 17 17 17 15 14 12 10 9 9 11 13 16 19 21 22 23 24 24 24 24 23 22 21 20 19 18 16 15 13 12 10 8 6 5 4 3
31 32 32 33 33 33 30 25 20 16 13 13 14 16 18 19 19 19 17 16 15 14 12 11 10 8 6 5 4 3 1 5 9 13 14 12 9 6 4 6 7 8 9 10 12 14 15 16 17 18 19 20 20 18 17 14 11 9 9 11 13 16 19 21 23 25 27 28 29 29 29 28 27 26 25 23 22 20 19 16 14 12 10 10 9 9
31 32 32 33 33 30 25 20 16 13 12 14 15 17 18 18 17 17 16 15 14 13 12 10 8 7 6 5 4 4 4 7 10 13 14 12 8 4 3 6 7 9 10 12 14 16 18 18 19 20 21 21 21 20 18 14 11 9 9 11 14 17 19 20 21 23 24 27 29 31 32 32 32 31 31 30 29 28 27 25 24 23 21 21 20 21
31 33 33 32 30 25 19 15 13 13 13 15 16 17 17 16 16 16 16 15 13 12 11 9 8 7 6 6 6 6 7 9 11 13 13 10 6 4 3 6 8 11 13 14 16 18 19 20 20 21 21 21 21 20 18 14 11 9 9 12 15 17 18 17 16 16 17 18 20 23 25 28 30 31 32 32 32 31 31 30 29 28 28 27 26 26
32 33 32 30 25 20 13 12 12 13 14 16 16 16 15 16 16 16 16 15 13 11 10 9 9 9 8 8 8 8 9 10 11 12 11 8 6 4 4 7 10 13 15 16 18 19 20 20 20 20 21 21 21 20 18 14 11 10 10 13 15 16 15 13 12 10 10 11 12 13 14 16 18 19 21 22 23 23 23 23 22 21 20 20 19 18
32 31 28 25 20 15 11 11 12 14 15 16 15 14 13 15 16 15 15 14 12 10 9 9 10 10 10 11 10 10 10 10 10 10 8 7 6 6 7 10 13 15 17 18 19 18 18 18 18 19 19 20 20 20 18 15 12 11 11 13 13 13 12 10 9 9 9 10 10 10 10 10 10 11 11 12 13 13 13 13 14 14 14 15 16 16
31 27 22 18 14 12 11 12 13 14 14 14 14 13 14 15 15 14 14 12 10 9 10 11 13 13 13 13 13 12 10 9 8 7 6 6 7 7 9 12 14 16 17 18 18 16 15 16 16 17 18 18 19 19 18 15 13 11 11 11 11 11 9 9 10 12 14 16 16 15 14 13 13 12 13 13 14 14 15 16 17 19 20 22 24 26
27 22 17 13 11 11 12 13 13 13 13 13 13 13 13 14 14 13 13 10 9 9 11 13 15 16 16 16 14 12 10 7 6 6 6 7 8 10 12 13 15 16 17 16 15 14 14 15 16 17 17 17 18 18 18 16 13 11 9 9 9 8 8 10 14 18 22 23 23 22 21 20 19 18 18 18 19 20 20 22 22 24 25 26 27 28
21 16 12 11 11 12 13 13 13 12 12 12 12 12 12 12 11 11 11 10 10 11 14 16 17 18 18 16 13 11 8 6 5 5 6 7 9 12 13 14 15 16 16 14 13 13 15 16 17 18 18 18 18 18 17 15 12 9 8 7 6 6 7 12 18 22 25 25 24 24 23 22 21 20 19 19 18 18 18 18 18 18 17 17 17 17
16 12 9 10 12 13 14 13 12 11 11 12 12 12 12 11 10 9 9 9 11 12 14 16 18 18 16 13 11 9 7 6 5 5 7 9 11 13 14 14 15 15 13 12 13 15 18 19 20 20 20 20 19 18 16 13 10 8 6 6 5 5 8 15 20 23 22 20 19 18 18 18 18 17 16 14 13 12 10 9 8 7 6 6 6 6
11 9 9 11 13 14 13 11 10 10 10 11 12 12 12 11 10 10 9 10 11 13 13 15 15 15 13 11 9 8 7 5 5 6 8 10 13 14 15 14 15 15 13 12 13 16 20 21 22 23 23 23 21 19 16 13 10 8 6 5 4 5 10 18 21 20 16 13 11 11 11 12 12 12 12 12 11 10 9 8 6 5 4 4 3 3
8 8 10 12 13 13 12 10 9 9 9 10 11 12 12 12 11 10 10 12 12 12 12 13 13 13 11 9 8 7 6 5 5 7 9 11 14 15 15 13 14 15 15 13 13 16 20 22 23 24 25 25 25 23 19 15 11 9 7 5 5 9 16 21 21 17 12 11 10 10 10 10 10 10 10 10 10 9 9 8 7 7 6 5 4 4
8 10 12 14 14 13 10 9 8 8 9 10 10 10 11 11 10 10 11 12 12 11 10 11 12 13 11 9 7 6 6 5 6 8 10 12 14 16 13 12 13 15 16 14 13 14 19 23 24 24 25 26 27 27 25 19 14 10 8 7 11 17 24 24 21 17 14 14 14 13 13 12 11 10 9 9 8 7 7 7 7 8 8 8 7 7
10 12 14 14 13 11 9 8 8 8 8 8 8 9 9 9 9 9 11 11 10 9 10 10 11 12 12 10 7 6 5 5 6 8 11 13 15 16 13 12 12 13 15 13 12 13 19 23 24 25 25 26 28 29 29 26 22 19 16 18 22 25 25 21 17 14 13 12 11 11 12 12 13 12 12 10 9 8 7 7 8 10 12 12 12 11
13 15 15 14 12 10 8 7 7 7 7 7 7 7 7 7 7 8 10 9 8 8 9 10 11 12 12 10 8 6 5 5 7 9 11 13 15 15 13 12 11 11 12 12 13 15 19 22 25 27 26 27 27 28 30 30 30 29 27 27 25 22 17 13 8 5 2 2 2 3 5 8 11 13 14 13 12 10 8 7 8 10 13 15 15 14
16 16 15 13 11 9 8 7 7 7 6 6 6 6 7 7 8 8 8 8 8 8 9 10 11 12 12 11 8 6 5 6 7 9 11 14 16 16 14 12 11 9 9 12 14 16 17 21 25 28 27 26 25 25 26 27 27 25 22 19 15 11 6 3 -0 -2 -4 -3 -0 2 5 8 11 14 16 17 17 15 13 11 11 11 13 15 15 14
16 16 15 13 10 9 8 7 7 7 6 6 6 6 7 8 8 8 8 7 7 7 8 9 11 12 12 10 8 7 7 7 7 8 11 14 16 16 15 13 11 9 7 10 14 18 20 22 25 27 28 24 21 20 18 17 16 13 10 7 4 2 0 -2 -2 -2 -1 2 6 9 13 14 15 16 17 19 21 21 19 16 14 12 12 13 12 11
16 15 14 12 10 8 8 8 7 7 7 6 6 7 7 8 9 8 8 7 7 7 7 8 10 11 12 10 9 7 6 6 7 8 11 15 17 17 16 14 11 8 7 9 14 20 27 27 28 28 27 22 18 15 12 10 7 5 3 1 0 -1 -1 -1 -1 0 2 5 8 11 13 13 13 14 15 17 20 22 23 20 17 14 12 11 10 9
15 14 13 11 9 8 8 8 7 7 7 7 7 7 8 8 8 8 8 7 7 7 7 7 9 10 11 11 10 8 7 6 7 8 11 15 17 18 17 14 11 8 7 9 13 20 28 31 30 27 23 18 14 11 9 7 5 3 1 0 0 0 1 1 2 2 3 6 7 8 9 9 10 11 12 13 16 18 21 20 18 15 12 11 10 10
14 13 12 10 9 8 8 8 8 8 7 7 7 8 8 8 8 8 8 8 7 7 7 7 7 8 10 11 10 9 8 7 7 8 10 14 17 19 18 15 11 8 8 10 15 20 26 30 29 25 18 13 10 8 6 5 4 4 3 2 3 3 3 3 3 3 4 6 7 8 8 9 10 10 11 13 14 17 19 18 16 14 11 10 10 10
13 12 11 10 9 8 8 8 8 8 8 7 7 7 7 7 7 7 7 7 7 7 6 6 7 7 8 10 10 9 8 8 8 8 9 13 17 19 20 16 11 8 8 11 16 20 25 28 26 21 13 9 6 5 5 4 4 4 3 4 4 4 3 3 3 3 5 7 8 10 11 11 11 11 11 12 15 18 21 21 18 15 12 10 9 8
11 11 10 9 9 9 9 8 8 8 8 7 7 7 7 6 6 6 7 7 7 7 6 6 6 7 7 9 9 10 10 9 8 7 9 12 16 20 21 16 12 9 8 11 15 19 22 24 22 18 12 9 7 7 6 5 4 3 3 4 4 3 2 2 3 4 6 8 10 12 13 13 12 11 9 9 12 17 22 24 23 20 16 13 9 5
10 9 9 9 9 9 9 9 9 8 8 8 7 7 7 6 6 6 7 7 7 7 7 6 6 6 7 8 9 9 9 8 7 7 8 11 16 20 22 17 13 9 8 11 13 16 19 20 19 16 11 9 8 8 9 8 7 6 5 4 3 3 3 3 4 6 8 11 12 13 14 13 13 11 9 8 10 15 20 24 25 23 19 13 8 4
8 8 8 8 8 9 9 9 9 9 8 8 8 7 7 7 7 6 6 7 7 7 7 7 7 6 6 7 8 9 8 7 7 7 7 10 15 19 23 19 13 8 7 9 12 14 17 18 18 15 11 7 6 6 7 8 9 9 8 7 6 5 5 5 7 9 12 13 13 13 13 13 13 11 10 9 12 16 21 25 25 23 18 12 8 6
8 8 8 8 9 9 9 9 9 9 9 9 9 8 8 8 7 7 7 7 7 7 7 7 7 7 6 7 8 8 8 8 8 7 7 10 14 19 23 21 15 8 5 6 8 11 14 14 14 12 9 7 5 4 4 6 7 8 9 8 8 7 7 7 9 11 14 14 13 12 12 12 11 10 10 12 17 22 27 28 25 21 16 12 11 11
8 8 9 9 10 10 10 10 10 10 10 10 10 10 10 9 9 9 8 8 8 8 8 8 8 7 6 6 7 7 8 8 8 7 8 9 13 17 23 23 17 10 4 4 6 7 9 10 8 7 5 5 5 4 4 4 6 7 8 9 9 9 8 9 12 14 16 14 12 11 11 10 10 10 12 18 24 29 30 26 22 18 14 12 13 15
9 10 10 10 10 10 10 11 11 11 11 11 11 11 11 11 11 10 10 10 10 9 9 9 9 8 7 6 6 6 7 7 7 7 8 9 11 15 22 24 20 13 4 3 4 5 6 6 5 4 3 3 4 4 4 4 5 6 7 8 9 10 10 12 14 16 15 13 11 11 11 10 10 13 20 27 31 31 26 19 16 14 14 15 16 17
11 11 11 11 11 11 11 12 12 13 13 13 13 13 13 13 13 13 12 12 12 11 11 11 10 9 8 7 7 6 7 7 7 7 7 8 10 13 20 25 23 16 7 2 2 3 4 4 4 4 3 3 4 4 4 4 5 6 7 7 8 10 12 15 17 17 14 12 11 10 9 10 15 22 31 34 31 26 18 14 13 14 16 17 17 16
12 13 13 13 13 13 13 13 13 14 14 14 14 15 15 15 15 15 15 14 14 13 13 13 12 11 10 9 8 7 7 7 6 6 7 7 9 12 17 24 25 21 12 5 1 0 2 4 4 4 4 4 4 4 5 6 6 7 7 7 8 9 12 16 17 15 13 12 10 10 10 16 24 31 35 30 24 17 12 12 14 16 18 18 17 14
14 14 14 14 14 14 14 14 15 15 15 16 16 17 17 17 17 17 17 17 17 16 16 14 13 13 13 11 9 8 7 7 7 6 6 7 8 10 14 21 25 25 19 10 3 -1 -1 1 2 3 3 3 4 5 6 7 8 8 8 8 8 10 14 16 15 13 10 9 9 11 16 25 30 31 26 20 14 10 8 11 15 18 20 18 16 13
14 14 14 14 14 14 15 15 16 16 17 17 17 18 18 18 19 19 19 19 19 18 18 17 15 14 14 12 10 9 8 8 7 7 6 6 6 8 12 19 25 27 24 15 8 2 -1 -1 -0 0 1 2 3 4 6 8 9 9 8 8 10 13 17 17 15 11 9 9 12 17 25 30 29 22 12 8 6 5 6 11 16 20 22 18 15 12
14 13 13 13 14 14 15 15 16 16 17 17 18 18 18 19 19 20 20 20 20 20 20 19 18 17 15 13 11 10 9 8 8 7 7 6 6 6 9 16 22 27 27 21 14 7 2 -0 -1 -0 1 2 3 4 6 8 9 9 8 9 12 15 19 16 12 9 9 13 19 25 32 32 25 14 3 2 3 6 8 13 19 23 22 17 12 9
13 13 13 13 14 14 15 15 16 16 16 16 17 17 18 19 19 20 20 21 21 21 21 20 20 19 17 15 13 11 9 8 8 8 8 7 6 6 7 13 19 24 27 24 19 13 7 3 1 1 2 3 4 5 7 8 9 9 8 11 14 17 18 13 9 9 14 20 26 30 34 32 25 14 2 3 5 8 12 18 23 25 21 13 9 6
12 12 12 13 13 14 14 14 14 15 15 15 16 16 17 18 19 19 20 20 21 21 21 21 20 19 18 16 14 12 10 9 9 9 9 8 6 6 7 11 16 21 25 25 22 17 13 9 6 5 4 4 5 6 8 9 9 9 9 12 15 16 14 9 9 12 19 24 28 30 32 29 24 17 9 8 8 10 14 21 26 26 17 9 6 6
11 12 12 13 13 13 13 13 13 13 13 14 14 15 16 16 17 18 18 19 20 21 21 21 21 20 19 17 15 13 11 10 9 9 9 9 7 6 7 10 14 18 22 23 22 20 16 13 10 8 7 6 6 7 9 10 10 10 11 15 16 15 11 9 11 15 19 21 22 24 25 23 19 15 11 9 10 13 17 24 28 25 13 6 4 5
11 12 12 12 12 12 12 12 12 12 13 13 13 14 14 15 15 16 16 18 19 20 21 22 22 21 20 18 16 13 12 10 9 9 10 9 8 7 7 9 13 16 20 21 21 19 16 13 11 8 7 7 7 8 8 9 9 11 14 17 17 14 10 11 14 16 14 12 12 13 14 13 12 11 11 11 12 14 20 27 29 23 10 5 4 5
Height
5510 5505 5500 5496 5492 5488 5481 5474 5469 5465 5461 5453 5446 5440 5435 5431 5425 5419 5414 5409 5404 5399 5394 5390 5386 5383 5380 5377 5374 5371 5368 5365 5362 5359 5357 5354 5351 5348 5345 5343 5340 5337 5334 5331 5328 5326 5323 5320 5318 5315 5313 5311 5309 5307 5305 5304 5303 5302 5302 5301 5301 5302 5303 5303 5304 5306 5307 5309 5311 5313 5314 5316 5318 5319 5321 5322 5323 5324 5326 5327 5328 5328 5329 5330 5331 5331
5502 5497 5491 5487 5483 5479 5473 5465 5458 5453 5448 5443 5438 5431 5425 5421 5416 5411 5405 5400 5395 5391 5387 5383 5379 5376 5373 5371 5368 5366 5363 5360 5357 5355 5352 5349 5347 5344 5341 5338 5335 5333 5330 5327 5324 5321 5318 5316 5313 5311 5309 5307 5305 5303 5301 5300 5299 5298 5298 5297 5297 5297 5298 5298 5299 5301 5302 5303 5305 5307 5308 5310 5312 5313 5314 5316 5317 5318 5319 5320 5320 5321 5322 5323 5323 5324
5494 5489 5483 5477 5472 5468 5463 5457 5449 5442 5436 5431 5427 5422 5416 5412 5407 5403 5398 5393 5388 5384 5380 5377 5374 5371 5368 5366 5364 5361 5358 5356 5353 5350 5348 5345 5343 5340 5337 5334 5332 5329 5326 5323 5320 5318 5315 5313 5310 5308 5305 5303 5301 5300 5298 5297 5296 5295 5294 5294 5294 5294 5294 5294 5295 5296 5298 5299 5300 5301 5303 5304 5306 5307 5308 5310 5311 5312 5313 5313 5313 5314 5315 5316 5317 5317
5484 5480 5475 5468 5462 5457 5452 5446 5440 5434 5427 5421 5417 5413 5408 5403 5398 5394 5391 5387 5383 5379 5375 5372 5369 5367 5364 5362 5360 5357 5354 5352 5349 5346 5344 5341 5339 5336 5333 5330 5328 5325 5322 5319 5317 5314 5312 5309 5307 5305 5303 5300 5298 5297 5295 5294 5293 5292 5291 5291 5291 5291 5291 5291 5292 5293 5293 5295 5296 5297 5298 5299 5301 5302 5303 5305 5306 5307 5307 5307 5308 5309 5310 5310 5310 5310
5473 5469 5465 5459 5453 5447 5440 5435 5429 5424 5418 5413 5408 5404 5401 5396 5391 5387 5384 5381 5378 5375 5371 5368 5365 5363 5360 5358 5356 5353 5351 5348 5345 5343 5340 5338 5335 5333 5330 5327 5324 5321 5318 5316 5313 5311 5308 5306 5304 5302 5299 5298 5296 5294 5293 5292 5291 5290 5289 5288 5288 5288 5288 5288 5289 5289 5290 5291 5292 5293 5294 5295 5297 5298 5299 5300 5301 5301 5302 5302 5303 5303 5304 5304 5304 5304
5462 5458 5453 5449 5443 5437 5431 5425 5420 5415 5410 5404 5399 5396 5393 5390 5386 5382 5378 5376 5373 5370 5367 5364 5362 5359 5357 5354 5352 5349 5347 5344 5342 5339 5337 5335 5332 5329 5326 5323 5320 5318 5315 5313 5310 5307 5305 5303 5300 5298 5296 5295 5293 5292 5290 5289 5288 5287 5287 5286 5286 5285 5285 5286 5286 5286 5287 5288 5288 5289 5291 5292 5293 5293 5294 5295 5296 5296 5296 5296 5297 5297 5297 5297 5298 5298
5453 5447 5441 5437 5433 5428 5421 5416 5411 5407 5403 5398 5393 5389 5386 5383 5380 5377 5374 5371 5369 5366 5363 5361 5358 5356 5353 5350 5348 5345 5343 5341 5339 5337 5334 5331 5328 5325 5322 5319 5317 5314 5312 5309 5307 5304 5301 5299 5297 5295 5293 5292 5290 5289 5288 5287 5286 5285 5284 5284 5283 5283 5283 5283 5283 5283 5284 5284 5285 5286 5287 5288 5288 5289 5289 5290 5290 5290 5290 5291 5291 5291 5291 5291 5291 5291
5443 5438 5431 5425 5421 5418 5413 5407 5401 5398 5396 5393 5388 5384 5381 5378 5376 5373 5371 5368 5364 5362 5359 5357 5355 5353 5349 5347 5344 5341 5339 5338 5336 5333 5331 5328 5325 5322 5319 5316 5314 5312 5309 5306 5304 5301 5298 5296 5294 5292 5290 5289 5287 5286 5284 5283 5283 5282 5281 5281 5281 5280 5280 5280 5280 5280 5281 5281 5282 5282 5283 5283 5284 5284 5285 5285 5285 5285 5285 5285 5285 5285 5285 5285 5285 5285
5431 5428 5423 5417 5412 5408 5406 5401 5395 5390 5388 5386 5383 5379 5376 5374 5372 5370 5368 5364 5361 5358 5356 5354 5352 5349 5346 5343 5340 5338 5336 5335 5333 5331 5328 5325 5322 5319 5316 5314 5312 5309 5307 5304 5301 5299 5296 5294 5292 5290 5288 5286 5285 5283 5282 5281 5280 5279 5278 5278 5277 5277 5277 5277 5277 5277 5277 5277 5278 5278 5278 5279 5279 5280 5280 5280 5280 5280 5280 5280 5280 5280 5280 5280 5280 5280
5421 5417 5413 5409 5404 5400 5398 5395 5390 5385 5382 5379 5377 5374 5372 5369 5368 5366 5364 5362 5358 5355 5352 5350 5348 5346 5343 5340 5338 5335 5333 5332 5330 5328 5325 5322 5319 5316 5314 5312 5309 5307 5305 5302 5299 5297 5294 5292 5289 5288 5286 5284 5282 5281 5279 5278 5277 5276 5275 5275 5274 5274 5273 5273 5273 5273 5273 5273 5273 5273 5274 5274 5274 5275 5275 5275 5275 5275 5275 5275 5275 5275 5275 5275 5275 5275
5413 5408 5405 5401 5397 5393 5390 5388 5385 5381 5377 5374 5372 5369 5367 5365 5363 5361 5360 5358 5355 5353 5350 5348 5345 5343 5340 5338 5335 5333 5332 5330 5328 5326 5323 5320 5317 5314 5312 5310 5308 5305 5303 5300 5297 5294 5292 5289 5287 5285 5283 5282 5280 5278 5277 5276 5275 5274 5273 5272 5271 5271 5270 5269 5269 5269 5269 5269 5269 5269 5269 5269 5269 5270 5270 5270 5270 5271 5271 5270 5270 5270 5270 5270 5270 5270
5405 5401 5398 5395 5391 5387 5384 5381 5378 5376 5373 5370 5368 5366 5363 5362 5359 5358 5355 5353 5352 5350 5348 5345 5343 5340 5337 5334 5332 5331 5329 5328 5327 5324 5322 5319 5316 5313 5310 5308 5306 5303 5300 5298 5295 5292 5289 5287 5285 5283 5281 5279 5278 5276 5275 5273 5273 5272 5271 5270 5269 5268 5267 5266 5266 5265 5265 5264 5264 5264 5264 5264 5265 5265 5265 5265 5266 5266 5266 5266 5266 5266 5266 5266 5266 5266
5398 5395 5391 5388 5385 5381 5378 5375 5373 5371 5368 5366 5364 5362 5360 5358 5356 5354 5352 5350 5348 5346 5344 5343 5341 5338 5335 5332 5329 5328 5327 5326 5325 5323 5320 5317 5314 5311 5308 5306 5304 5301 5299 5296 5293 5290 5288 5285 5283 5281 5279 5277 5275 5274 5273 5271 5270 5269 5268 5267 5266 5265 5264 5263 5262 5262 5261 5260 5260 5260 5260 5260 5260 5260 5260 5261 5261 5262 5261 5262 5262 5262 5262 5262 5262 5262
5393 5389 5385 5382 5378 5376 5373 5371 5368 5366 5364 5362 5360 5358 5357 5355 5353 5351 5349 5347 5345 5343 5342 5340 5338 5336 5333 5330 5327 5325 5324 5324 5323 5321 5318 5315 5312 5308 5305 5304 5302 5299 5297 5294 5291 5288 5286 5283 5281 5279 5277 5275 5273 5272 5271 5269 5268 5267 5266 5264 5263 5262 5261 5260 5259 5258 5258 5257 5256 5256 5256 5256 5256 5256 5256 5256 5257 5257 5257 5257 5258 5258 5258 5258 5258 5258
5386 5383 5380 5377 5374 5371 5369 5366 5364 5363 5361 5359 5358 5356 5354 5352 5350 5348 5346 5344 5342 5341 5339 5337 5335 5333 5331 5328 5324 5322 5321 5321 5320 5319 5317 5313 5309 5306 5303 5301 5299 5297 5294 5291 5289 5286 5284 5281 5279 5277 5275 5273 5271 5270 5268 5267 5266 5264 5263 5262 5260 5259 5258 5257 5256 5255 5254 5253 5253 5253 5252 5252 5252 5252 5252 5252 5252 5252 5253 5253 5253 5253 5253 5253 5254 5254
5380 5377 5374 5372 5370 5368 5365 5363 5361 5359 5358 5356 5355 5353 5351 5349 5347 5345 5343 5341 5339 5338 5336 5335 5333 5332 5329 5326 5323 5319 5318 5318 5318 5316 5314 5311 5308 5303 5300 5298 5297 5295 5292 5289 5286 5283 5281 5279 5277 5274 5272 5271 5269 5268 5266 5265 5263 5262 5260 5259 5258 5256 5255 5254 5253 5252 5251 5250 5249 5249 5248 5248 5248 5248 5248 5248 5248 5248 5248 5248 5249 5249 5249 5249 5250 5250
5376 5373 5370 5368 5366 5364 5362 5360 5358 5356 5355 5353 5352 5350 5348 5346 5344 5342 5340 5338 5337 5335 5334 5332 5330 5329 5327 5325 5322 5318 5315 5315 5314 5314 5312 5309 5306 5302 5298 5296 5294 5293 5290 5287 5284 5281 5279 5276 5274 5272 5270 5268 5267 5265 5264 5263 5261 5260 5258 5257 5255 5254 5252 5251 5250 5249 5248 5247 5246 5246 5245 5245 5244 5244 5244 5244 5245 5245 5245 5245 5245 5245 5246 5246 5246 5246
5372 5369 5366 5364 5363 5361 5359 5357 5355 5353 5352 5351 5349 5348 5346 5344 5342 5340 5338 5336 5334 5333 5332 5330 5328 5326 5324 5322 5320 5317 5314 5312 5312 5312 5310 5308 5304 5300 5297 5294 5292 5290 5288 5284 5281 5278 5276 5273 5271 5269 5267 5266 5264 5263 5262 5261 5259 5258 5256 5255 5253 5252 5250 5249 5248 5247 5245 5244 5243 5243 5242 5242 5241 5241 5241 5241 5241 5241 5242 5242 5242 5242 5242 5242 5242 5242
5368 5365 5363 5361 5359 5358 5356 5354 5353 5351 5349 5348 5346 5345 5343 5342 5340 5338 5336 5334 5333 5331 5329 5328 5325 5323 5321 5319 5317 5314 5312 5310 5310 5309 5308 5306 5303 5299 5295 5292 5290 5288 5285 5282 5279 5276 5273 5271 5268 5267 5265 5263 5262 5261 5259 5258 5257 5256 5254 5253 5252 5250 5248 5247 5246 5245 5243 5243 5241 5241 5240 5239 5238 5238 5238 5238 5238 5238 5238 5238 5238 5238 5239 5238 5238 5238
5364 5362 5359 5358 5356 5354 5353 5352 5350 5348 5346 5345 5343 5342 5341 5339 5338 5336 5334 5333 5331 5329 5327 5325 5323 5321 5319 5317 5314 5312 5310 5309 5308 5308 5306 5304 5301 5297 5293 5290 5288 5286 5283 5279 5276 5273 5271 5268 5266 5264 5263 5261 5260 5259 5258 5256 5255 5253 5252 5251 5250 5248 5247 5246 5244 5243 5242 5241 5240 5239 5238 5237 5237 5236 5236 5236 5236 5235 5235 5235 5235 5236 5236 5236 5235 5235
5360 5358 5356 5355 5353 5351 5350 5348 5347 5345 5343 5342 5341 5340 5338 5337 5335 5334 5332 5330 5329 5327 5326 5323 5321 5319 5317 5315 5313 5311 5308 5307 5306 5305 5304 5302 5298 5295 5291 5288 5285 5283 5280 5277 5274 5271 5268 5266 5264 5262 5261 5259 5258 5257 5255 5254 5253 5252 5250 5249 5248 5247 5245 5244 5243 5242 5241 5239 5238 5238 5237 5236 5235 5235 5234 5234 5233 5233 5233 5233 5233 5233 5233 5233 5233 5232
5356 5355 5353 5352 5350 5348 5347 5346 5344 5343 5341 5340 5339 5338 5336 5334 5333 5331 5330 5328 5327 5325 5324 5322 5320 5318 5316 5313 5311 5309 5307 5305 5304 5303 5301 5299 5296 5292 5288 5285 5283 5281 5278 5275 5272 5269 5266 5264 5262 5260 5259 5258 5256 5255 5253 5252 5251 5250 5248 5247 5246 5245 5244 5243 5242 5240 5239 5238 5237 5236 5235 5235 5234 5233 5233 5232 5232 5231 5231 5231 5230 5230 5230 5230 5229 5229
5353 5352 5350 5349 5347 5346 5344 5343 5341 5340 5339 5338 5337 5335 5333 5332 5330 5329 5328 5326 5325 5323 5322 5321 5319 5317 5314 5312 5309 5307 5305 5303 5302 5300 5298 5296 5293 5290 5286 5283 5281 5278 5276 5273 5270 5267 5265 5262 5260 5258 5257 5256 5254 5253 5252 5250 5249 5248 5246 5245 5244 5243 5243 5241 5240 5239 5238 5237 5236 5235 5234 5233 5233 5232 5231 5231 5230 5230 5229 5228 5228 5228 5228 5227 5227 5226
5350 5349 5348 5346 5345 5343 5342 5341 5339 5338 5337 5335 5334 5333 5331 5330 5328 5327 5325 5324 5323 5322 5321 5319 5318 5315 5313 5311 5308 5305 5303 5301 5299 5298 5296 5293 5290 5287 5284 5281 5279 5277 5274 5271 5268 5265 5263 5261 5259 5257 5255 5254 5252 5251 5250 5248 5247 5246 5244 5244 5243 5242 5241 5240 5239 5238 5237 5235 5235 5234 5233 5232 5232 5231 5230 5229 5229 5228 5228 5227 5227 5226 5225 5225 5224 5224
5348 5346 5345 5343 5342 5341 5340 5338 5337 5335 5334 5333 5332 5331 5329 5328 5326 5325 5323 5322 5321 5320 5318 5317 5315 5313 5311 5309 5306 5303 5301 5299 5297 5295 5293 5291 5288 5285 5282 5279 5277 5275 5272 5269 5266 5263 5261 5259 5257 5255 5253 5252 5250 5249 5248 5246 5245 5244 5243 5242 5241 5241 5239 5238 5238 5236 5235 5234 5234 5233 5232 5231 5231 5230 5229 5228 5228 5227 5227 5226 5225 5225 5224 5223 5223 5222
5345 5344 5343 5341 5340 5339 5337 5336 5334 5333 5331 5330 5329 5328 5327 5326 5324 5323 5322 5320 5319 5318 5316 5315 5313 5311 5309 5307 5304 5302 5299 5297 5295 5293 5291 5289 5286 5283 5281 5278 5275 5273 5270 5267 5264 5262 5260 5258 5256 5254 5252 5250 5248 5247 5246 5244 5243 5243 5242 5241 5240 5239 5238 5238 5236 5235 5234 5234 5233 5232 5231 5231 5230 5229 5228 5228 5227 5226 5225 5225 5224 5223 5222 5222 5221 5220
5343 5342 5340 5339 5338 5337 5335 5333 5332 5331 5329 5328 5326 5325 5324 5323 5322 5321 5320 5318 5317 5315 5313 5312 5311 5309 5307 5305 5303 5300 5298 5296 5294 5292 5290 5288 5285 5282 5279 5276 5274 5271 5269 5266 5263 5260 5258 5257 5254 5252 5250 5248 5246 5245 5244 5243 5242 5242 5241 5240 5239 5238 5237 5236 5235 5234 5233 5233 5232 5231 5230 5229 5229 5228 5227 5226 5225 5224 5224 5223 5222 5221 5220 5220 5219 5218
5341 5340 5338 5337 5336 5335 5333 5332 5330 5329 5328 5326 5324 5323 5322 5321 5320 5318 5317 5316 5314 5313 5311 5309 5308 5307 5305 5303 5301 5298 5296 5294 5293 5291 5288 5286 5283 5280 5277 5275 5272 5270 5267 5264 5261 5258 5257 5255 5253 5251 5248 5247 5245 5243 5243 5242 5241 5241 5240 5239 5238 5237 5236 5235 5234 5233 5233 5232 5231 5230 5229 5228 5228 5227 5226 5225 5224 5223 5222 5221 5220 5219 5218 5218 5217 5216
5339 5338 5337 5335 5334 5333 5332 5330 5329 5328 5326 5324 5323 5321 5320 5318 5317 5316 5315 5314 5312 5311 5309 5308 5306 5304 5303 5301 5300 5298 5295 5293 5291 5289 5287 5285 5282 5279 5276 5273 5270 5268 5266 5263 5260 5257 5255 5253 5252 5250 5248 5245 5244 5242 5241 5241 5240 5239 5239 5238 5237 5236 5235 5234 5234 5233 5232 5231 5230 5229 5228 5227 5226 5225 5224 5223 5222 5221 5220 5219 5218 5217 5216 5215 5215 5214
5338 5337 5335 5334 5333 5331 5330 5328 5327 5326 5324 5323 5321 5319 5318 5317 5315 5314 5313 5312 5310 5309 5307 5306 5304 5303 5301 5299 5298 5296 5294 5292 5289 5287 5285 5283 5280 5277 5274 5272 5269 5267 5265 5263 5260 5256 5253 5252 5250 5248 5246 5244 5243 5242 5241 5240 5239 5238 5238 5237 5236 5235 5234 5233 5233 5232 5231 5230 5229 5228 5227 5226 5224 5223 5222 5221 5219 5218 5217 5216 5215 5214 5213 5213 5212 5212
5337 5335 5334 5333 5331 5329 5328 5327 5325 5324 5323 5321 5319 5318 5317 5315 5314 5313 5311 5310 5308 5307 5305 5304 5302 5301 5299 5298 5296 5295 5293 5290 5288 5286 5284 5282 5279 5276 5273 5270 5268 5266 5264 5262 5259 5256 5253 5250 5248 5247 5245 5244 5243 5241 5240 5239 5238 5238 5237 5236 5235 5234 5234 5233 5232 5231 5229 5228 5227 5226 5225 5223 5222 5221 5219 5218 5217 5216 5214 5213 5212 5211 5210 5209 5209 5209
5335 5334 5333 5331 5330 5328 5327 5325 5324 5323 5321 5320 5318 5317 5316 5314 5313 5311 5310 5308 5307 5305 5304 5302 5300 5299 5297 5296 5294 5293 5290 5289 5287 5285 5282 5280 5278 5275 5272 5269 5267 5264 5263 5260 5258 5256 5253 5250 5248 5246 5245 5243 5242 5241 5240 5239 5238 5238 5237 5236 5235 5234 5233 5232 5231 5229 5228 5227 5225 5224 5222 5221 5219 5218 5217 5216 5214 5213 5212 5210 5209 5208 5207 5206 5206 5206
5334 5332 5331 5330 5328 5327 5325 5324 5323 5322 5320 5319 5317 5316 5314 5313 5311 5310 5308 5306 5305 5303 5302 5300 5299 5297 5296 5294 5293 5291 5288 5287 5285 5283 5281 5279 5276 5273 5271 5268 5266 5264 5261 5259 5257 5254 5252 5250 5248 5246 5244 5243 5242 5241 5240 5239 5238 5237 5236 5235 5234 5233 5232 5231 5230 5228 5227 5226 5224 5222 5220 5218 5217 5215 5214 5213 5211 5210 5209 5208 5206 5205 5204 5203 5203 5202
5332 5331 5329 5328 5327 5326 5324 5323 5321 5320 5319 5318 5316 5315 5313 5312 5310 5308 5307 5305 5303 5301 5300 5298 5297 5295 5294 5293 5291 5289 5287 5285 5283 5281 5279 5277 5275 5272 5270 5268 5265 5263 5261 5258 5256 5253 5251 5249 5247 5246 5244 5243 5242 5241 5240 5239 5238 5237 5236 5235 5234 5233 5231 5230 5229 5228 5226 5224 5223 5221 5219 5217 5215 5213 5212 5210 5209 5207 5206 5204 5203 5202 5201 5200 5199 5199
5331 5329 5328 5327 5326 5324 5323 5322 5320 5319 5317 5316 5314 5313 5312 5310 5308 5307 5305 5303 5301 5299 5298 5296 5295 5293 5292 5290 5289 5288 5286 5284 5282 5279 5278 5276 5274 5271 5269 5267 5264 5262 5260 5258 5255 5253 5251 5249 5247 5246 5244 5243 5242 5241 5240 5239 5238 5236 5235 5234 5233 5232 5230 5229 5228 5226 5224 5223 5221 5219 5217 5215 5213 5212 5210 5208 5207 5205 5203 5202 5201 5199 5198 5197 5197 5196
5329 5328 5326 5325 5324 5323 5322 5320 5319 5317 5316 5314 5313 5312 5310 5308 5307 5305 5303 5301 5299 5298 5296 5294 5293 5291 5290 5288 5287 5286 5284 5283 5280 5278 5276 5274 5272 5270 5268 5266 5263 5262 5259 5257 5255 5253 5251 5248 5247 5245 5244 5243 5242 5240 5239 5238 5237 5235 5234 5233 5232 5230 5229 5228 5226 5224 5223 5221 5219 5218 5216 5214 5212 5210 5208 5206 5204 5203 5201 5200 5198 5197 5196 5194 5193 5193
5327 5326 5325 5323 5323 5321 5320 5319 5318 5316 5314 5313 5312 5310 5308 5307 5305 5303 5301 5299 5298 5296 5294 5293 5291 5289 5288 5287 5285 5284 5282 5280 5278 5277 5274 5273 5271 5269 5267 5265 5263 5261 5259 5257 5255 5253 5251 5248 5247 5245 5244 5243 5242 5240 5239 5238 5236 5235 5233 5232 5231 5229 5228 5226 5224 5223 5221 5220 5218 5216 5214 5212 5210 5208 5206 5204 5202 5200 5199 5197 5196 5194 5193 5192 5191 5189
5325 5324 5323 5322 5321 5320 5318 5317 5316 5314 5313 5311 5310 5308 5307 5305 5303 5301 5299 5298 5296 5294 5293 5291 5289 5288 5286 5284 5283 5282 5280 5278 5277 5275 5273 5271 5269 5268 5266 5264 5262 5260 5259 5257 5255 5253 5251 5248 5247 5245 5244 5243 5241 5240 5238 5237 5236 5234 5233 5232 5230 5228 5226 5225 5223 5222 5220 5218 5216 5214 5212 5210 5208 5206 5204 5202 5200 5198 5197 5195 5193 5192 5191 5189 5188 5187
5323 5322 5321 5320 5319 5318 5317 5315 5314 5313 5311 5309 5308 5306 5305 5303 5301 5299 5298 5296 5294 5293 5291 5289 5288 5286 5284 5283 5281 5280 5278 5277 5275 5273 5272 5269 5268 5266 5265 5263 5261 5260 5258 5257 5254 5253 5251 5249 5247 5245 5244 5242 5241 5239 5238 5237 5236 5234 5233 5232 5230 5228 5226 5224 5222 5220 5218 5217 5215 5213 5211 5209 5206 5204 5202 5200 5198 5196 5195 5193 5192 5190 5188 5187 5186 5184
5322 5320 5319 5318 5317 5316 5314 5313 5312 5310 5309 5307 5306 5304 5303 5301 5299 5298 5296 5294 5292 5291 5289 5288 5286 5284 5283 5281 5280 5278 5277 5275 5274 5272 5270 5268 5267 5265 5264 5263 5261 5259 5258 5256 5254 5253 5250 5248 5247 5245 5243 5242 5241 5239 5238 5237 5236 5234 5233 5232 5230 5228 5226 5224 5222 5220 5218 5215 5213 5211 5209 5207 5204 5202 5200 5198 5196 5195 5193 5192 5190 5189 5187 5186 5184 5183
5320 5319 5318 5316 5315 5313 5312 5311 5309 5308 5306 5305 5303 5302 5301 5299 5298 5296 5294 5292 5290 5289 5288 5286 5284 5283 5281 5279 5278 5277 5275 5274 5273 5271 5269 5267 5265 5264 5262 5261 5260 5258 5257 5255 5253 5252 5250 5248 5247 5245 5243 5242 5240 5239 5238 5236 5235 5234 5233 5231 5229 5228 5226 5224 5221 5219 5216 5214 5212 5210 5207 5205 5203 5201 5199 5197 5195 5193 5192 5190 5189 5188 5186 5185 5183 5182
5319 5317 5316 5315 5313 5312 5310 5308 5307 5305 5304 5303 5301 5300 5298 5297 5295 5294 5292 5291 5289 5287 5286 5284 5283 5282 5280 5278 5276 5275 5274 5273 5271 5269 5268 5266 5264 5263 5261 5260 5259 5258 5256 5255 5253 5251 5250 5248 5247 5245 5243 5242 5240 5239 5237 5236 5234 5233 5232 5230 5228 5227 5225 5223 5221 5218 5215 5213 5211 5208 5206 5204 5202 5200 5198 5196 5194 5192 5191 5189 5188 5187 5185 5184 5183 5181
5317 5316 5314 5313 5311 5309 5308 5306 5305 5303 5302 5300 5299 5297 5296 5294 5293 5292 5290 5289 5287 5286 5284 5283 5282 5280 5278 5277 5275 5274 5272 5271 5269 5268 5267 5265 5263 5262 5260 5259 5258 5256 5255 5254 5252 5251 5249 5248 5247 5245 5243 5242 5240 5238 5237 5235 5234 5233 5231 5229 5227 5226 5224 5222 5220 5218 5215 5212 5210 5208 5205 5203 5201 5199 5197 5195 5193 5191 5190 5189 5187 5186 5185 5183 5182 5180
5316 5314 5313 5311 5309 5308 5306 5304 5303 5301 5299 5298 5297 5295 5293 5292 5291 5289 5288 5287 5285 5284 5283 5281 5280 5278 5277 5275 5274 5273 5271 5269 5268 5267 5265 5264 5262 5261 5259 5258 5256 5255 5254 5253 5252 5250 5248 5247 5246 5244 5243 5241 5240 5238 5237 5235 5233 5232 5230 5228 5227 5224 5222 5220 5218 5216 5214 5212 5209 5207 5205 5203 5200 5198 5196 5194 5193 5191 5190 5189 5187 5185 5184 5182 5180 5178
5314 5312 5310 5309 5308 5306 5304 5303 5301 5299 5298 5296 5294 5293 5291 5289 5288 5287 5286 5284 5283 5282 5280 5279 5278 5277 5275 5274 5273 5271 5270 5268 5267 5265 5264 5263 5261 5260 5258 5257 5255 5254 5253 5252 5251 5250 5248 5247 5245 5244 5243 5241 5239 5238 5236 5235 5233 5232 5230 5228 5226 5223 5221 5219 5217 5215 5213 5211 5209 5207 5204 5202 5200 5198 5196 5194 5193 5192 5191 5189 5187 5184 5183 5181 5179 5177
5312 5310 5308 5307 5306 5304 5303 5301 5299 5298 5296 5294 5293 5291 5289 5288 5286 5284 5283 5282 5281 5279 5278 5277 5276 5275 5273 5273 5271 5270 5268 5267 5266 5264 5263 5262 5260 5258 5257 5255 5254 5253 5252 5251 5250 5249 5248 5246 5245 5243 5242 5240 5239 5237 5236 5234 5233 5231 5230 5228 5226 5223 5221 5219 5216 5214 5212 5210 5208 5206 5204 5202 5200 5198 5197 5195 5194 5193 5190 5188 5186 5183 5182 5180 5178 5176
5310 5308 5307 5305 5304 5303 5301 5299 5298 5296 5294 5292 5291 5289 5287 5286 5284 5283 5281 5280 5278 5277 5276 5275 5273 5273 5272 5271 5270 5268 5267 5266 5264 5263 5262 5261 5259 5258 5256 5254 5253 5252 5250 5249 5248 5248 5247 5246 5244 5243 5242 5240 5238 5237 5235 5234 5232 5231 5229 5227 5225 5223 5221 5219 5216 5214 5212 5210 5207 5205 5203 5201 5200 5198 5198 5197 5195 5192 5189 5187 5185 5183 5182 5180 5178 5175
5309 5307 5306 5304 5303 5301 5299 5298 5296 5294 5293 5291 5289 5287 5286 5284 5283 5281 5279 5278 5277 5275 5274 5273 5272 5270 5269 5268 5268 5267 5266 5265 5263 5262 5261 5260 5258 5257 5255 5253 5252 5250 5249 5248 5247 5246 5245 5244 5243 5243 5241 5240 5238 5237 5235 5233 5232 5230 5228 5227 5225 5223 5221 5219 5217 5214 5212 5210 5207 5205 5203 5201 5199 5198 5197 5196 5193 5190 5188 5186 5185 5183 5182 5180 5177 5174
5308 5306 5304 5303 5301 5300 5298 5296 5295 5293 5291 5289 5288 5286 5284 5283 5281 5279 5278 5276 5275 5273 5272 5271 5270 5269 5268 5267 5266 5265 5264 5263 5262 5261 5260 5258 5257 5256 5254 5253 5251 5250 5248 5247 5246 5245 5244 5243 5243 5242 5241 5240 5238 5237 5235 5234 5232 5230 5228 5227 5225 5223 5221 5219 5217 5214 5213 5210 5208 5205 5203 5202 5200 5199 5197 5195 5192 5190 5188 5186 5184 5183 5181 5179 5177 5175
5306 5305 5303 5302 5300 5298 5297 5295 5293 5292 5290 5288 5287 5285 5283 5281 5279 5278 5276 5275 5273 5272 5270 5269 5268 5267 5266 5265 5264 5263 5263 5262 5260 5259 5258 5257 5256 5255 5253 5252 5251 5249 5248 5246 5245 5244 5243 5243 5242 5241 5240 5239 5238 5237 5235 5234 5232 5231 5229 5227 5225 5223 5221 5219 5217 5215 5213 5211 5208 5206 5204 5202 5201 5199 5198 5195 5192 5190 5188 5186 5184 5183 5181 5179 5178 5175
5305 5303 5302 5301 5299 5297 5296 5294 5293 5291 5289 5288 5286 5284 5282 5280 5278 5277 5275 5273 5272 5270 5269 5268 5267 5265 5264 5263 5263 5262 5261 5260 5259 5258 5257 5256 5255 5254 5253 5251 5250 5248 5247 5246 5244 5243 5243 5242 5241 5240 5240 5239 5238 5237 5236 5234 5233 5231 5229 5227 5225 5223 5221 5219 5217 5215 5213 5211 5209 5207 5205 5203 5201 5199 5197 5194 5192 5190 5189 5187 5185 5183 5182 5180 5178 5176